Temperature
10 10 10 9 9 9 9 9 9 9 9 9 9 9 9 9 9 9 9 8 8 8 8 7 7 7 7 7 6 6 6 6 6 6 6 6 6 7 7 7 7 7 8
10 10 10 9 9 9 9 9 9 9 9 9 9 9 9 9 9 9 9 9 8 8 8 7 7 7 6 6 6 6 6 6 6 6 6 6 6 6 6 6 6 7 7
10 10 9 9 9 9 9 9 9 9 9 9 9 9 9 9 9 9 9 9 8 8 8 7 7 7 6 6 6 5 5 5 5 5 5 5 5 5 5 5 6 6 6
10 9 9 9 9 9 9 9 9 9 9 9 9 9 9 9 9 9 9 8 8 8 8 7 7 7 6 6 5 5 5 5 5 4 4 4 4 4 5 5 5 5 5
10 9 9 9 9 9 9 9 9 9 9 9 9 9 10 10 9 9 9 8 8 8 7 7 7 6 6 6 5 5 4 4 4 4 4 4 4 4 4 4 4 5 5
10 10 9 9 9 9 9 9 9 9 9 9 9 9 9 9 9 9 8 8 7 7 7 6 6 6 6 6 5 5 4 4 4 3 3 3 3 3 3 4 4 4 4
10 10 10 10 9 9 9 9 9 9 9 9 9 9 9 9 9 8 8 7 7 7 6 6 6 6 5 5 5 5 4 3 3 3 3 3 3 3 3 3 3 3 4
10 10 10 10 10 9 9 9 9 9 9 9 9 9 9 8 8 8 8 7 7 6 6 6 5 5 5 5 5 4 4 4 3 2 2 2 2 2 2 3 3 3 3
10 10 10 10 10 9 9 9 9 9 9 9 8 8 8 8 8 8 7 7 7 6 6 5 5 5 5 5 4 4 4 3 2 2 2 2 2 2 2 2 2 2 2
10 10 10 10 10 9 9 9 9 9 9 8 8 8 7 7 6 7 7 7 6 6 6 5 5 5 5 4 4 4 3 3 2 2 1 1 1 1 1 1 1 1 1
10 10 10 10 10 9 9 9 9 9 9 8 8 8 7 7 6 5 6 6 6 6 6 5 5 4 4 4 3 3 3 2 2 1 1 1 1 1 1 1 1 1 1
10 10 10 10 9 9 9 9 9 9 8 8 8 7 7 6 6 5 5 5 5 6 5 5 4 4 3 3 2 2 2 2 1 1 0 0 -0 -0 -0 -0 -0 0 0
10 10 10 10 9 9 9 9 9 8 8 8 8 7 7 6 6 5 4 4 4 4 5 5 4 3 3 2 2 1 1 1 1 0 0 -0 -0 -1 -1 -1 -1 -1 -0
10 10 10 10 9 9 9 9 8 8 8 8 7 7 6 6 5 5 4 3 2 3 3 4 3 3 2 1 1 1 1 0 0 -0 -0 -1 -1 -1 -1 -1 -1 -1 -1
10 10 10 9 9 9 9 8 8 8 8 7 7 7 6 6 5 4 4 3 2 1 1 2 2 2 1 1 0 0 0 -0 -0 -1 -1 -1 -1 -2 -2 -2 -2 -2 -2
10 9 9 9 9 9 8 8 8 8 7 7 7 6 6 5 5 4 3 3 2 1 0 1 1 1 0 0 -0 -1 -1 -1 -1 -1 -1 -2 -2 -2 -2 -2 -2 -2 -2
9 9 9 9 9 9 8 8 8 7 7 7 6 6 5 5 4 4 3 2 2 1 -0 1 1 0 0 -0 -0 -1 -1 -1 -2 -2 -2 -2 -3 -3 -3 -3 -3 -3 -3
9 9 9 9 8 8 8 8 7 7 6 6 6 5 5 4 4 3 2 2 1 1 -0 -1 -0 -0 -1 -1 -1 -2 -2 -2 -2 -2 -3 -3 -3 -3 -4 -4 -4 -4 -4
9 9 8 8 8 8 8 7 7 6 6 6 5 5 4 4 3 2 2 1 1 0 -1 -1 -1 -1 -1 -2 -2 -2 -3 -3 -3 -3 -3 -4 -4 -4 -4 -4 -4 -4 -4
8 8 8 8 8 7 7 6 6 6 5 5 4 4 3 3 2 2 1 1 0 -0 -1 -2 -2 -2 -2 -2 -3 -3 -3 -4 -4 -4 -4 -4 -4 -4 -5 -4 -4 -4 -4
8 8 8 7 7 7 6 6 5 5 5 4 4 3 3 2 1 1 0 -0 -1 -1 -2 -2 -3 -3 -3 -3 -4 -4 -5 -5 -4 -4 -4 -4 -5 -5 -4 -5 -5 -5 -5
7 7 7 7 6 6 6 5 5 4 4 3 3 2 2 1 1 0 -0 -1 -2 -2 -2 -3 -3 -4 -4 -4 -4 -5 -5 -5 -5 -5 -5 -5 -5 -5 -5 -5 -5 -5 -5
7 7 6 6 6 5 5 4 4 3 3 2 2 2 1 1 0 -0 -1 -1 -2 -2 -3 -3 -4 -4 -4 -5 -5 -5 -5 -6 -6 -6 -6 -6 -6 -6 -6 -6 -6 -6 -6
6 6 6 5 5 4 4 3 3 2 2 2 1 1 0 -0 -1 -1 -2 -2 -2 -3 -3 -3 -4 -4 -5 -5 -5 -6 -6 -6 -6 -6 -6 -7 -6 -6 -6 -6 -6 -6 -6
6 5 5 4 4 4 3 3 2 2 1 1 0 -0 -1 -1 -2 -2 -3 -3 -3 -3 -4 -4 -4 -5 -5 -5 -6 -6 -6 -6 -7 -6 -7 -7 -7 -7 -7 -6 -6 -6 -7
5 5 4 4 3 3 3 2 1 1 0 -0 -0 -1 -1 -2 -3 -3 -3 -4 -4 -4 -5 -5 -5 -5 -5 -6 -6 -6 -7 -7 -7 -7 -7 -8 -8 -8 -8 -7 -7 -7 -7
Wind_Speed
7 8 7 6 6 5 4 2 1 2 2 3 3 3 3 4 4 4 4 4 5 5 6 7 7 8 8 9 9 9 9 10 10 11 11 12 12 12 13 13 13 14 14
10 8 5 5 5 5 5 3 1 0 1 2 3 4 4 5 5 4 4 4 3 3 4 6 7 7 8 9 9 9 9 10 10 11 11 12 12 13 13 14 14 14 14
12 9 5 4 5 6 5 3 1 2 2 2 3 4 4 5 4 4 4 2 2 1 2 4 5 7 8 8 9 9 9 10 10 11 12 12 13 13 14 14 15 15 15
13 10 5 4 6 6 4 2 1 1 1 2 3 3 4 4 4 4 2 1 1 1 1 3 5 6 7 8 9 10 10 11 11 12 12 13 13 14 14 15 15 16 16
14 11 7 6 7 5 3 2 1 1 0 2 3 3 3 3 3 2 1 1 1 1 1 2 3 5 7 8 10 11 12 12 12 12 13 13 14 14 15 15 16 16 17
14 12 8 7 7 4 3 2 2 1 0 1 3 3 4 3 2 1 1 1 1 1 1 2 3 5 6 8 10 12 13 13 13 13 13 14 14 15 16 16 16 17 17
15 12 7 6 6 4 4 4 2 1 0 1 2 4 4 4 3 2 2 1 2 2 2 3 4 5 6 7 9 12 13 13 13 14 14 14 15 16 16 17 17 17 18
15 12 9 6 6 4 4 4 3 2 0 1 2 2 4 5 4 3 2 1 2 3 4 5 6 6 6 7 8 11 12 13 14 14 15 15 16 17 17 17 18 18 18
14 13 11 9 7 6 5 5 5 5 3 1 1 3 2 3 3 4 3 2 2 2 3 6 7 9 8 8 8 9 11 13 14 15 16 16 17 18 18 18 18 18 19
12 13 12 10 8 6 6 5 5 4 4 2 1 1 2 3 2 3 4 3 4 4 4 5 8 9 9 9 9 11 12 14 15 16 17 18 18 19 19 19 19 19 20
10 12 12 10 8 6 6 6 5 5 4 4 3 2 1 1 2 3 5 5 4 4 4 5 6 8 9 9 10 11 13 15 16 17 18 19 20 20 20 20 20 20 20
6 9 10 10 9 7 7 6 6 6 5 4 4 4 4 3 3 4 5 5 6 5 4 4 5 6 8 8 9 12 14 15 17 19 19 20 20 21 21 21 21 21 21
6 9 8 8 8 8 8 7 6 6 6 5 5 4 4 4 4 4 4 5 5 4 4 3 4 6 6 7 9 13 14 17 18 19 20 21 21 22 22 22 22 22 22
8 8 9 9 9 9 8 7 5 5 5 6 6 5 4 4 4 4 4 3 4 4 3 5 3 5 6 7 10 14 13 17 19 20 21 21 22 22 22 22 22 22 22
7 8 9 9 8 8 8 7 5 6 5 5 5 5 4 4 4 4 4 4 3 5 6 4 4 4 6 8 12 12 13 17 20 21 22 22 22 23 23 22 22 23 23
8 8 9 8 8 7 7 6 5 5 5 5 4 5 5 4 4 4 4 4 5 5 7 4 5 5 6 10 14 14 14 19 20 21 22 23 23 23 23 23 23 23 23
9 9 9 9 8 8 7 6 6 6 6 5 5 5 6 5 4 4 4 4 5 5 9 8 5 5 5 7 10 12 14 14 15 20 22 23 23 23 23 23 24 24 24
9 9 8 8 8 7 7 7 7 7 7 6 6 6 6 5 6 5 5 6 6 6 7 11 7 5 7 7 7 7 10 13 13 18 22 22 23 23 23 23 24 24 24
8 8 8 8 8 7 7 7 7 7 7 7 6 7 7 6 7 6 6 6 6 6 6 8 9 6 5 6 6 7 8 8 12 16 19 20 21 22 23 24 24 25 24
8 8 8 8 7 7 7 6 6 6 6 6 6 6 7 7 8 8 7 7 7 7 7 8 9 7 6 6 5 6 7 6 7 10 15 18 20 22 23 24 24 24 24
7 7 7 6 6 6 6 6 6 6 6 6 6 6 7 8 11 9 7 6 6 6 6 7 8 7 6 5 6 5 8 7 7 7 7 8 10 9 13 19 21 22 23
6 6 6 6 6 5 7 9 7 5 5 6 7 7 7 8 11 14 15 15 12 8 8 7 8 9 9 7 7 7 7 8 7 4 5 7 6 7 8 10 18 22 23
6 6 6 6 6 6 7 8 9 5 6 6 6 6 6 7 10 7 12 15 14 17 16 11 10 10 9 8 8 8 8 9 9 5 5 7 5 8 7 13 20 22 22
5 5 5 5 5 5 7 8 7 5 5 6 6 7 7 7 8 8 7 7 8 10 12 9 8 9 8 8 8 8 9 8 7 5 5 7 6 6 8 8 18 20 20
4 4 4 5 5 5 6 7 6 4 5 6 6 6 6 7 13 15 9 8 8 8 12 16 17 15 17 18 14 6 6 7 8 5 3 4 4 5 5 6 10 15 17
4 4 3 4 4 5 5 6 6 3 4 5 5 6 9 11 14 14 8 7 9 9 8 9 10 12 10 11 15 8 6 7 7 5 3 3 4 3 4 4 4 7 10
Wind_Direction
182 190 200 205 208 208 209 217 267 322 339 344 354 359 350 342 336 327 317 310 301 310 328 339 343 344 343 342 341 339 336 333 331 330 328 326 325 325 325 324 322 319 314
183 184 189 191 197 200 197 183 176 93 9 7 0 356 347 342 339 334 324 321 316 312 330 341 346 349 350 348 345 343 340 337 335 333 330 327 326 323 321 320 318 317 314
184 180 177 183 193 191 179 150 118 76 35 10 345 333 331 331 330 324 320 319 326 336 347 352 353 351 348 345 344 344 341 337 333 329 327 325 322 320 319 318 316 314 313
185 176 171 182 185 173 157 133 112 76 12 349 321 314 321 322 321 320 320 334 120 79 11 358 354 349 347 342 341 340 337 332 329 327 325 323 321 319 316 315 313 311 309
185 175 175 181 173 156 148 146 120 128 321 315 301 304 319 317 317 332 356 54 109 124 66 358 351 347 341 335 335 335 332 328 326 324 323 321 319 317 316 314 312 310 308
183 175 173 175 165 149 153 145 136 106 164 294 312 327 327 329 340 0 2 38 63 83 38 349 335 330 327 326 329 327 325 324 322 321 321 319 317 315 314 312 311 309 307
182 176 170 167 162 165 170 162 146 126 20 16 21 348 341 350 13 18 10 19 18 20 12 345 324 314 314 319 323 322 322 321 319 318 318 317 316 314 312 312 311 309 307
182 180 171 170 167 164 162 162 149 142 131 82 103 50 351 341 340 354 344 352 352 4 350 334 323 311 303 302 308 317 316 315 316 316 315 316 315 314 313 312 311 310 309
182 178 177 171 171 168 175 178 165 160 175 200 138 141 145 255 301 317 322 328 324 320 317 317 310 308 306 301 304 308 310 312 313 314 314 315 314 312 311 311 311 310 309
182 180 178 174 172 171 177 182 173 167 160 184 204 183 177 171 198 301 310 308 310 298 296 300 300 301 303 303 304 307 310 310 311 312 312 312 312 311 310 310 310 309 307
185 182 179 175 176 178 180 178 172 176 173 175 181 180 176 173 184 205 276 300 309 282 275 275 281 286 295 300 302 305 309 311 310 310 310 309 309 309 308 308 307 306 304
189 188 182 180 180 180 183 185 183 183 185 183 185 183 180 189 203 202 242 272 288 284 275 267 264 270 285 295 301 308 311 310 309 309 308 308 307 306 305 305 304 303 302
196 198 188 185 185 186 185 183 184 192 189 191 197 203 204 209 197 195 223 263 279 289 290 277 254 261 273 291 300 307 308 308 308 307 307 306 305 304 303 302 301 301 301
199 192 189 189 188 186 187 184 188 196 193 200 209 208 214 223 208 202 205 234 287 292 280 272 280 255 268 287 298 306 302 305 306 305 304 304 304 303 301 300 299 299 299
190 185 188 189 191 190 188 183 195 201 197 205 213 215 222 229 221 219 212 200 217 277 288 264 267 263 268 287 297 298 293 300 303 303 303 302 301 301 300 298 298 298 297
183 181 188 191 192 191 188 187 196 202 200 213 211 217 230 235 233 227 223 220 212 229 267 265 255 263 279 291 296 299 293 299 301 301 301 300 299 298 298 298 297 297 296
184 186 189 190 192 193 191 192 202 202 211 223 223 226 239 238 240 240 234 230 228 225 261 277 261 268 271 275 287 287 289 287 287 296 299 299 298 298 297 297 297 296 295
186 187 184 187 192 194 193 196 206 208 214 225 232 234 245 246 248 247 242 243 243 234 247 277 284 275 265 267 270 276 290 290 285 292 297 298 299 299 298 298 297 297 295
181 180 181 189 194 195 197 202 206 212 218 226 229 233 243 242 252 253 249 251 252 256 245 265 280 273 269 271 276 280 278 279 284 290 294 297 298 298 298 298 297 297 295
177 182 187 191 193 194 198 205 210 217 225 233 234 236 242 241 249 254 257 254 256 258 258 264 276 278 271 269 270 280 290 274 278 285 286 289 292 295 296 297 297 298 297
179 179 180 187 190 194 204 206 211 215 222 237 247 248 251 257 262 265 267 260 253 258 263 269 277 283 279 280 276 272 286 287 274 265 269 275 282 281 286 290 295 295 295
172 172 183 189 198 212 219 217 214 212 221 235 250 258 262 265 273 280 283 283 279 274 271 268 276 277 279 272 274 276 283 293 290 251 256 274 268 272 276 276 286 292 294
172 179 189 193 207 221 223 228 228 220 225 237 246 256 269 271 281 272 280 288 287 286 284 280 275 273 277 275 276 278 274 277 281 274 272 280 270 272 276 282 292 296 297
178 187 196 201 210 228 232 239 241 230 237 244 246 249 256 266 271 278 272 273 271 275 280 283 271 272 273 272 265 271 276 279 275 268 256 275 276 273 280 279 289 295 299
180 189 194 198 211 236 239 246 250 235 244 254 257 256 260 262 278 289 288 277 280 278 286 288 288 289 293 299 301 298 294 295 294 284 243 253 273 283 277 272 281 295 303
182 184 195 201 212 234 250 255 258 234 248 258 263 263 273 280 286 292 285 275 279 280 281 285 288 292 295 296 299 291 278 284 292 288 249 253 274 296 293 267 268 286 296
Height
1550 1551 1552 1552 1552 1552 1552 1552 1552 1551 1551 1550 1549 1548 1547 1546 1545 1544 1543 1542 1541 1540 1539 1538 1537 1536 1535 1533 1532 1531 1530 1528 1527 1526 1525 1524 1523 1522 1521 1520 1520 1519 1518
1549 1549 1550 1551 1551 1551 1551 1551 1551 1550 1549 1549 1548 1547 1546 1544 1543 1542 1541 1540 1539 1538 1537 1536 1535 1534 1532 1531 1530 1528 1527 1526 1525 1523 1522 1521 1520 1519 1518 1517 1516 1515 1514
1547 1548 1549 1549 1549 1550 1550 1550 1549 1549 1548 1547 1546 1545 1544 1542 1541 1540 1539 1538 1537 1536 1535 1534 1533 1531 1530 1529 1528 1526 1525 1523 1522 1521 1519 1518 1517 1515 1514 1513 1512 1511 1510
1545 1546 1547 1547 1548 1548 1548 1548 1548 1547 1546 1545 1544 1543 1542 1540 1539 1538 1537 1536 1535 1534 1533 1532 1531 1529 1528 1527 1525 1524 1522 1521 1519 1518 1516 1515 1513 1512 1510 1509 1508 1507 1506
1543 1544 1545 1545 1546 1546 1546 1546 1546 1545 1544 1543 1542 1541 1539 1538 1537 1536 1536 1535 1534 1533 1532 1530 1529 1527 1526 1524 1523 1521 1519 1518 1516 1515 1513 1511 1510 1508 1507 1505 1504 1503 1502
1540 1541 1542 1543 1543 1544 1544 1544 1543 1543 1542 1541 1540 1539 1537 1536 1535 1535 1534 1533 1532 1531 1530 1528 1527 1525 1523 1521 1520 1518 1516 1515 1513 1511 1510 1508 1506 1505 1503 1501 1500 1498 1497
1537 1538 1539 1540 1541 1541 1542 1542 1541 1541 1540 1539 1538 1537 1535 1534 1534 1533 1532 1531 1530 1529 1528 1526 1524 1522 1520 1518 1516 1514 1512 1511 1509 1508 1506 1504 1503 1501 1499 1497 1496 1494 1493
1534 1535 1537 1537 1538 1539 1539 1539 1539 1538 1537 1537 1536 1534 1533 1533 1531 1531 1530 1529 1528 1527 1525 1524 1521 1519 1517 1515 1513 1511 1508 1507 1505 1504 1502 1500 1499 1497 1495 1493 1491 1489 1488
1531 1532 1533 1534 1535 1536 1536 1536 1536 1536 1535 1534 1533 1533 1532 1530 1529 1528 1527 1526 1525 1524 1522 1520 1518 1516 1514 1511 1509 1507 1504 1502 1501 1499 1498 1496 1494 1492 1490 1488 1486 1484 1482
1527 1528 1530 1531 1532 1533 1533 1533 1533 1533 1533 1532 1531 1530 1530 1528 1527 1524 1524 1523 1521 1520 1518 1516 1514 1512 1510 1508 1505 1503 1500 1498 1496 1495 1493 1491 1489 1487 1485 1483 1481 1479 1476
1523 1525 1526 1527 1528 1529 1530 1530 1530 1530 1529 1529 1528 1527 1526 1525 1524 1522 1519 1518 1517 1516 1514 1512 1510 1508 1506 1503 1501 1498 1496 1494 1491 1489 1487 1485 1483 1481 1479 1477 1475 1472 1470
1518 1520 1522 1523 1524 1525 1526 1526 1527 1526 1526 1525 1525 1523 1523 1522 1520 1518 1515 1512 1510 1509 1508 1507 1505 1503 1501 1498 1496 1494 1491 1489 1486 1484 1481 1479 1476 1474 1472 1470 1468 1466 1464
1513 1515 1518 1519 1520 1521 1522 1523 1523 1523 1522 1522 1521 1520 1519 1518 1516 1515 1512 1508 1505 1503 1502 1501 1500 1498 1496 1493 1491 1488 1486 1483 1480 1478 1475 1473 1470 1468 1466 1463 1461 1459 1458
1509 1512 1514 1515 1516 1517 1518 1518 1518 1518 1518 1517 1517 1516 1514 1513 1512 1510 1508 1505 1501 1497 1496 1495 1494 1493 1491 1488 1485 1483 1480 1477 1474 1472 1469 1466 1464 1461 1459 1457 1455 1453 1451
1505 1507 1509 1511 1512 1513 1514 1514 1514 1514 1514 1513 1512 1511 1510 1509 1507 1506 1504 1502 1499 1493 1489 1488 1488 1486 1485 1482 1479 1476 1473 1471 1468 1465 1463 1460 1457 1455 1452 1450 1448 1446 1444
1500 1503 1504 1506 1507 1508 1509 1509 1509 1509 1509 1508 1507 1506 1505 1504 1502 1500 1499 1497 1494 1491 1485 1481 1481 1480 1478 1475 1473 1470 1467 1464 1461 1458 1455 1453 1450 1448 1445 1443 1441 1439 1436
1496 1498 1500 1501 1502 1503 1504 1504 1504 1504 1503 1503 1502 1500 1499 1498 1496 1495 1493 1491 1488 1485 1479 1475 1475 1473 1471 1468 1466 1463 1460 1456 1454 1451 1448 1445 1443 1441 1438 1436 1433 1431 1429
1491 1493 1495 1496 1497 1498 1498 1499 1499 1498 1498 1497 1496 1495 1494 1492 1490 1489 1486 1484 1481 1479 1474 1468 1466 1465 1463 1461 1458 1455 1452 1449 1446 1443 1441 1438 1436 1433 1430 1428 1426 1423 1421
1486 1488 1490 1491 1492 1493 1493 1493 1493 1493 1492 1492 1491 1489 1488 1486 1484 1482 1479 1477 1475 1472 1468 1463 1459 1458 1456 1454 1450 1447 1445 1442 1439 1436 1433 1431 1428 1425 1423 1421 1418 1416 1413
1481 1483 1485 1486 1487 1488 1488 1488 1488 1487 1487 1486 1485 1483 1482 1480 1477 1475 1473 1470 1468 1465 1462 1458 1453 1450 1448 1446 1443 1439 1435 1433 1431 1428 1426 1423 1421 1418 1415 1413 1410 1407 1405
1476 1478 1480 1481 1482 1482 1482 1482 1482 1481 1481 1480 1479 1477 1476 1474 1471 1469 1466 1464 1461 1458 1455 1451 1447 1443 1441 1439 1436 1432 1428 1425 1422 1421 1417 1415 1413 1409 1407 1405 1402 1399 1397
1471 1473 1474 1475 1476 1476 1477 1477 1476 1476 1475 1474 1472 1471 1469 1467 1465 1463 1460 1458 1455 1452 1448 1444 1440 1437 1434 1432 1429 1426 1422 1418 1413 1413 1410 1407 1405 1402 1400 1397 1394 1392 1389
1466 1467 1469 1470 1471 1471 1471 1471 1471 1470 1469 1467 1466 1464 1462 1460 1458 1455 1453 1450 1448 1446 1443 1439 1434 1431 1428 1426 1423 1419 1415 1412 1408 1406 1403 1398 1398 1395 1393 1390 1388 1385 1383
1461 1462 1464 1465 1465 1466 1466 1465 1465 1463 1462 1461 1459 1457 1455 1453 1451 1448 1445 1442 1439 1437 1435 1432 1428 1425 1422 1419 1416 1413 1409 1405 1402 1400 1398 1393 1390 1387 1385 1383 1381 1379 1376
1456 1458 1459 1459 1460 1460 1460 1460 1459 1457 1455 1454 1453 1451 1448 1446 1444 1442 1438 1434 1431 1429 1427 1424 1422 1419 1416 1413 1411 1407 1403 1399 1394 1392 1391 1388 1383 1380 1378 1376 1374 1372 1370
1452 1453 1454 1454 1454 1454 1454 1454 1452 1450 1448 1447 1445 1444 1442 1439 1437 1435 1432 1428 1424 1421 1419 1416 1414 1411 1409 1406 1404 1401 1398 1394 1390 1387 1385 1383 1379 1376 1371 1368 1368 1366 1364